Temp
57 58 62 64 63 63 65 64 62 62 61 60 60 60 60 61 61 62 62 61 60 61 61 60 60 59 60 60 60 60 49 49
53 54 55 54 55 64 65 63 61 60 60 59 57 56 58 59 60 60 60 59 59 59 59 58 58 58 58 59 59 57 47 49
52 52 53 53 54 60 60 61 59 57 55 56 49 46 47 49 57 58 58 58 58 58 57 57 56 54 56 57 56 49 48 50
53 53 53 53 60 52 51 53 48 47 47 45 44 43 48 51 52 56 55 56 55 55 55 54 52 47 47 51 47 47 47 48
53 54 52 52 52 49 48 46 45 45 45 44 43 44 42 43 42 42 42 50 45 46 44 46 44 45 46 46 47 46 45 47
53 52 51 50 49 48 48 47 45 43 44 44 41 40 40 40 40 40 41 41 41 40 42 43 43 46 45 45 46 46 46 47
51 51 50 50 49 47 47 45 44 43 43 43 42 40 39 40 39 40 40 40 39 39 42 42 43 44 44 44 45 45 46 46
51 51 50 50 47 47 46 45 43 43 42 43 43 41 40 39 39 39 40 39 39 38 39 40 40 41 41 42 43 44 45 45
51 50 50 49 48 47 46 46 45 42 42 43 43 42 41 39 38 38 38 39 39 38 39 38 38 40 38 40 42 42 44 45
53 56 50 49 47 46 46 45 43 42 42 42 44 44 42 39 38 38 38 38 38 37 37 37 36 35 35 37 38 40 41 43
49 49 48 48 47 46 45 45 42 42 41 41 44 44 43 40 38 38 38 37 36 36 34 34 33 33 35 36 35 35 37 42
49 48 47 46 45 45 45 44 42 41 40 41 43 43 43 40 38 38 38 37 35 34 32 32 31 32 35 34 33 34 37 36
48 46 44 44 43 42 42 41 41 40 41 44 43 42 42 39 38 37 37 35 33 34 31 30 30 33 28 30 30 34 35 34
47 45 44 43 42 41 41 40 41 41 41 41 42 42 41 42 37 36 36 34 32 31 29 28 28 30 26 26 25 29 32 33
46 44 43 43 43 42 42 42 41 40 39 39 39 41 41 39 38 36 35 33 30 29 29 28 24 28 28 23 20 22 27 30
45 45 43 44 43 41 40 38 38 37 37 37 37 40 39 39 38 36 34 32 31 31 32 28 27 25 27 32 27 27 23 24
43 43 43 43 43 42 39 38 36 36 36 36 36 36 38 38 36 34 33 31 31 30 29 28 27 26 28 28 26 26 26 24
41 43 42 43 42 41 39 38 38 35 34 33 34 34 34 35 36 33 32 31 30 29 29 28 28 28 32 31 27 26 25 26
42 43 42 42 41 40 40 39 37 34 33 32 33 32 32 32 32 31 31 31 30 29 29 28 28 25 27 30 29 28 27 27
43 42 42 41 40 40 40 39 35 35 34 33 32 32 32 32 31 31 31 31 30 29 27 27 28 26 26 28 31 29 28 25
MSLP
1023.65 1023.74 1023.90 1024.08 1024.20 1024.23 1024.03 1023.95 1024.28 1024.40 1024.34 1024.29 1024.27 1023.98 1023.61 1023.22 1022.83 1022.43 1022.14 1022.05 1021.81 1021.40 1021.02 1020.84 1020.42 1020.09 1019.53 1019.02 1018.60 1018.38 1018.35 1018.02
1023.98 1024.12 1024.23 1024.34 1024.35 1024.32 1024.20 1024.29 1024.62 1024.63 1024.46 1024.53 1024.59 1024.51 1024.01 1023.68 1023.28 1022.92 1022.66 1022.48 1022.12 1021.79 1021.47 1021.16 1020.74 1020.47 1019.94 1019.30 1018.90 1018.72 1018.44 1018.02
1024.26 1024.36 1024.31 1024.48 1024.70 1024.52 1024.52 1024.59 1024.94 1025.22 1025.08 1024.92 1025.07 1024.94 1024.59 1024.38 1023.84 1023.54 1023.24 1022.93 1022.56 1022.16 1021.81 1021.45 1021.11 1020.79 1020.26 1019.73 1019.37 1019.05 1018.58 1018.08
1024.38 1024.54 1024.41 1024.52 1024.76 1024.97 1025.08 1025.25 1025.59 1025.76 1025.57 1025.52 1025.36 1025.21 1024.91 1024.69 1024.60 1024.10 1023.76 1023.32 1023.07 1022.64 1022.21 1021.85 1021.52 1021.12 1020.63 1020.03 1019.71 1019.18 1018.64 1018.21
1024.20 1024.40 1024.66 1024.77 1025.05 1025.28 1025.36 1025.65 1025.91 1025.99 1025.88 1025.83 1025.66 1025.53 1025.38 1025.19 1025.15 1024.77 1024.32 1023.76 1023.49 1023.09 1022.63 1022.18 1021.85 1021.39 1020.92 1020.33 1019.77 1019.26 1018.80 1018.16
1024.33 1024.61 1024.96 1025.19 1025.37 1025.63 1025.66 1025.80 1026.19 1026.28 1026.23 1026.06 1025.91 1025.92 1025.64 1025.50 1025.37 1024.97 1024.47 1024.03 1023.74 1023.40 1022.90 1022.37 1021.97 1021.47 1021.08 1020.55 1019.98 1019.43 1018.92 1018.32
1024.31 1024.68 1025.10 1025.33 1025.67 1025.89 1025.84 1026.11 1026.41 1026.42 1026.36 1026.15 1025.97 1025.95 1025.76 1025.64 1025.51 1025.12 1024.67 1024.20 1023.86 1023.58 1023.16 1022.81 1022.25 1021.70 1021.33 1020.94 1020.29 1019.61 1018.97 1018.37
1024.21 1024.72 1025.16 1025.40 1025.76 1025.87 1025.93 1026.12 1026.38 1026.41 1026.38 1026.15 1026.00 1025.86 1025.83 1025.84 1025.70 1025.39 1024.98 1024.50 1024.15 1023.80 1023.58 1023.18 1022.80 1022.33 1021.86 1021.29 1020.58 1019.94 1019.15 1018.50
1024.08 1024.71 1025.08 1025.30 1025.52 1025.72 1025.90 1026.08 1026.34 1026.44 1026.30 1026.15 1025.98 1025.90 1025.89 1025.89 1025.78 1025.51 1025.16 1024.71 1024.45 1024.12 1023.84 1023.52 1023.26 1022.79 1022.38 1021.61 1020.95 1020.33 1019.57 1018.93
1023.90 1024.26 1024.90 1025.10 1025.41 1025.69 1026.00 1026.18 1026.33 1026.37 1026.33 1026.25 1026.00 1025.92 1026.01 1026.11 1026.10 1025.83 1025.35 1024.94 1024.73 1024.58 1024.36 1023.94 1023.73 1023.37 1022.69 1021.91 1021.50 1020.86 1020.23 1019.56
1024.04 1024.62 1025.09 1025.19 1025.56 1025.76 1025.95 1026.17 1026.39 1026.45 1026.47 1026.36 1026.14 1026.05 1026.07 1026.09 1026.10 1026.01 1025.67 1025.25 1025.07 1024.92 1024.86 1024.66 1024.12 1023.56 1022.93 1022.18 1021.91 1021.53 1020.94 1020.35
1024.10 1024.87 1025.23 1025.41 1025.76 1025.88 1026.13 1026.35 1026.57 1026.75 1026.80 1026.54 1026.37 1026.26 1026.19 1026.21 1026.18 1026.13 1025.85 1025.57 1025.49 1025.33 1025.22 1025.05 1024.75 1024.13 1023.29 1022.40 1021.83 1021.63 1021.12 1020.89
1024.59 1025.12 1025.61 1025.65 1025.98 1026.34 1026.49 1026.71 1026.92 1027.05 1026.89 1026.66 1026.50 1026.33 1026.36 1026.47 1026.40 1026.33 1026.20 1026.06 1026.12 1025.71 1025.50 1025.31 1024.78 1024.30 1023.64 1022.70 1022.09 1021.52 1021.40 1021.42
1025.00 1025.45 1025.82 1026.13 1026.43 1026.75 1026.90 1027.01 1027.16 1027.19 1027.08 1026.88 1026.57 1026.57 1026.35 1026.25 1026.36 1026.45 1026.37 1026.05 1026.16 1025.98 1025.73 1025.83 1025.41 1025.00 1024.89 1024.09 1023.37 1022.10 1021.50 1021.66
1025.28 1025.77 1026.10 1026.42 1026.62 1026.81 1026.97 1026.99 1027.15 1027.22 1027.42 1027.37 1027.40 1027.02 1026.99 1026.71 1026.71 1026.65 1026.61 1026.36 1026.31 1026.25 1026.10 1026.06 1025.91 1025.53 1025.22 1025.16 1024.72 1024.22 1023.34 1021.87
1025.49 1025.97 1026.25 1026.65 1026.81 1027.19 1027.45 1027.70 1027.83 1027.90 1027.91 1027.80 1027.78 1027.63 1027.47 1027.11 1026.88 1026.82 1026.71 1026.67 1026.67 1026.34 1026.10 1026.29 1026.15 1025.86 1025.51 1025.05 1025.12 1024.99 1024.20 1022.74
1025.82 1026.19 1026.59 1026.91 1027.20 1027.47 1027.74 1028.01 1028.09 1028.06 1028.10 1027.72 1027.75 1027.92 1027.82 1027.38 1027.13 1027.13 1026.96 1026.84 1026.86 1026.51 1026.40 1026.43 1026.12 1025.84 1025.36 1025.09 1024.98 1024.59 1024.27 1024.11
1026.14 1026.51 1026.97 1027.20 1027.47 1027.73 1027.95 1028.30 1028.36 1028.48 1028.46 1028.18 1028.19 1028.23 1027.92 1027.73 1027.25 1027.51 1027.32 1027.10 1026.99 1026.66 1026.59 1026.33 1026.04 1025.59 1025.05 1024.82 1024.77 1024.67 1024.34 1024.09
1026.57 1026.82 1027.30 1027.47 1027.70 1028.03 1028.30 1028.53 1028.49 1028.94 1028.80 1028.68 1028.70 1028.47 1028.34 1027.91 1027.85 1027.76 1027.55 1027.35 1027.07 1026.66 1026.65 1026.39 1025.93 1025.42 1024.99 1024.68 1024.36 1024.22 1023.99 1023.83
1026.79 1027.10 1027.41 1027.63 1027.96 1028.43 1028.71 1028.71 1028.59 1028.99 1028.85 1028.74 1028.74 1028.47 1028.25 1027.96 1028.10 1027.91 1027.71 1027.46 1027.19 1026.76 1026.68 1026.34 1025.63 1025.17 1024.80 1024.40 1024.03 1023.72 1023.52 1023.43
Wind_Speed
6 6 8 10 9 9 7 13 14 16 16 16 17 17 17 17 17 18 18 19 19 19 19 20 20 20 19 19 19 19 8 5
5 4 5 4 2 5 11 15 14 16 17 17 17 18 18 18 17 18 18 18 18 19 19 19 20 21 20 19 19 16 7 5
6 5 4 4 2 4 11 15 16 15 14 17 11 6 7 11 17 18 19 18 18 20 20 21 21 20 21 20 19 6 6 6
7 6 5 6 6 5 6 9 5 4 6 6 5 6 8 11 13 18 17 18 19 19 19 19 15 7 6 12 5 7 6 7
6 7 6 7 5 4 3 3 3 3 6 5 6 5 4 5 3 4 4 12 4 7 6 6 8 7 7 8 8 7 5 5
6 7 6 6 4 4 4 4 3 3 4 5 4 3 4 4 3 4 4 4 6 5 4 6 8 10 9 11 11 9 6 5
8 8 6 5 6 3 3 4 4 3 4 4 4 4 4 4 4 4 5 5 4 5 7 7 9 10 10 10 11 11 10 5
8 8 6 6 5 3 2 4 5 4 3 3 5 4 4 4 4 4 5 4 4 5 6 6 7 8 10 11 10 10 10 7
9 8 6 5 5 4 2 3 4 4 3 4 5 5 5 4 4 4 4 5 6 5 6 5 6 8 9 9 9 11 10 9
8 7 6 3 2 2 2 3 4 4 3 3 5 5 6 5 4 4 5 5 4 4 6 7 8 8 8 8 7 7 10 11
9 8 6 3 5 5 3 4 3 3 3 3 4 4 5 4 4 4 5 4 4 4 4 5 8 8 9 7 6 4 5 8
10 7 8 7 4 3 3 3 2 3 2 2 2 1 3 3 4 4 4 4 4 3 4 3 3 7 8 7 5 1 7 6
9 9 7 5 4 3 3 3 2 3 2 0 1 1 4 4 3 4 5 5 4 5 3 4 4 8 5 5 4 3 10 6
9 9 8 6 4 2 2 1 3 3 2 3 3 6 5 4 4 4 5 4 5 5 5 3 3 5 3 3 5 5 6 4
10 8 8 6 6 4 4 3 3 3 4 4 6 6 6 6 6 5 5 4 3 3 4 5 3 3 6 2 4 3 9 4
11 9 8 7 7 5 5 2 3 2 2 3 5 6 6 6 6 5 5 3 5 3 4 2 2 3 3 1 2 3 3 5
8 9 8 7 7 6 4 5 2 1 3 6 6 5 6 5 6 6 6 4 4 5 5 5 2 2 3 2 2 3 3 2
7 9 6 7 7 6 7 6 4 5 4 4 4 3 3 5 5 6 5 5 4 4 4 6 4 4 4 3 2 2 3 4
7 8 6 7 7 7 6 5 6 5 4 3 4 3 3 5 5 5 4 4 5 5 5 5 5 4 5 4 3 4 3 3
8 7 7 7 7 6 5 5 4 2 4 3 2 2 3 4 5 5 5 5 5 5 4 4 5 4 6 5 5 4 3 2
Wind_Direction
148 146 142 136 126 120 95 73 64 45 41 39 34 23 24 20 17 18 14 15 13 11 10 5 4 2 356 357 357 358 357 340
149 138 135 158 158 142 63 78 68 52 45 43 39 24 22 18 13 18 17 15 12 12 13 6 4 1 360 355 359 356 335 338
156 147 199 183 162 85 73 81 73 62 51 46 35 14 359 12 8 23 10 19 11 13 9 8 6 355 357 7 359 338 338 333
136 130 91 109 105 85 77 91 81 68 60 50 32 22 14 19 17 20 17 17 8 15 12 8 4 343 343 348 336 332 335 329
95 87 74 83 88 79 64 85 85 61 59 53 39 22 5 4 357 340 343 360 346 351 352 358 353 349 346 342 336 335 325 322
102 87 88 82 82 75 81 86 95 72 65 63 51 24 8 3 356 329 347 330 349 346 346 349 352 351 351 342 340 337 326 323
108 95 88 75 82 79 79 82 105 109 81 74 59 33 17 3 349 342 347 344 353 346 356 355 353 355 350 343 335 331 325 317
115 100 101 95 111 128 124 112 131 106 93 98 65 48 24 16 358 348 351 351 344 356 360 358 352 353 345 338 329 330 324 320
114 113 113 110 139 168 128 119 128 126 116 94 69 53 26 22 3 356 345 348 360 4 5 0 360 348 339 332 339 336 355 1
117 115 126 120 64 152 149 119 136 142 117 102 71 49 42 26 17 1 345 1 8 13 13 7 3 352 331 328 335 338 356 14
121 112 99 72 69 73 83 111 133 141 108 90 72 48 59 51 29 359 352 4 13 16 24 16 359 350 331 327 327 339 360 15
112 91 73 79 72 73 67 79 81 74 89 119 101 35 79 52 30 11 7 12 19 14 36 9 348 333 329 320 313 68 17 15
105 98 77 69 57 31 17 14 50 55 61 61 242 308 68 35 25 16 10 25 36 32 360 351 341 343 331 334 312 268 40 3
106 94 80 72 71 46 57 67 59 85 8 10 9 20 53 38 31 21 22 24 46 33 32 346 344 358 340 312 350 332 347 346
110 103 96 82 74 55 36 39 35 23 8 15 1 52 46 45 36 39 9 26 76 37 19 23 348 324 4 56 347 339 321 317
111 110 100 87 77 67 69 69 48 7 357 18 39 33 30 36 35 25 11 23 57 3 16 3 343 329 319 330 232 271 320 316
115 108 98 95 84 87 72 56 61 51 17 38 33 36 26 22 27 10 25 56 24 13 360 343 307 283 272 277 278 288 265 316
110 106 104 97 91 81 81 76 69 42 18 40 15 357 19 10 14 23 48 36 9 360 340 340 324 307 329 289 251 278 299 292
116 113 108 96 93 80 81 85 67 53 43 50 26 359 337 346 15 43 31 1 359 1 344 330 316 321 314 303 268 258 243 262
118 118 108 93 93 84 68 64 67 58 54 56 14 2 318 2 41 51 14 358 358 360 329 305 314 314 312 299 271 265 266 233